Teterboro, NJ

5:27 AM EDT on October 19, 2017 (GMT -0400)
Teterboro

Weather History for KTEB - June, 2014

Change the Weather History Date:

Monday, June 9, 2014

  Actual Average Record
Temperature  
Mean Temperature 68 °F -  
Max Temperature 73 °F 76 °F 100 °F (2011)
Min Temperature 64 °F 56 °F 45 °F (1980)
Cooling Degree Days 4    
Growing Degree Days 18 (Base 50)    
Moisture  
Dew Point 61 °F    
Average Humidity 82    
Maximum Humidity 88    
Minimum Humidity 48    
Precipitation  
Precipitation 1.53 in - - ()
Sea Level Pressure  
Sea Level Pressure 29.94 in    
Wind  
Wind Speed 4 mph (East)    
Max Wind Speed 9 mph    
Max Gust Speed -    
Visibility 4 miles    
Events Rain    
Averages and records for this station are not official NWS values.
T = Trace of Precipitation, MM = Missing Value Source: NWS Daily Summary

Daily Weather History Graph

Daily Weather History Graph

Search for Another Location

Airport or City:

Trip Planner

Search our weather history database for the weather conditions in past years. The results will help you decide how hot, cold, wet, or windy it might be!

Date:

Astronomy

Jun. 09, 2014 Rise Set
Actual Time 5:24 AM EDT 8:26 PM EDT
Civil Twilight 4:51 AM EDT 9:00 PM EDT
Nautical Twilight 4:08 AM EDT 9:42 PM EDT
Astronomical Twilight 3:19 AM EDT 10:32 PM EDT
Moon 4:43 PM EDT (6/9) 2:51 AM EDT (6/9)
Length of Visible Light 16h 08m
Length of Day
15h 02m
Waxing Gibbous, 85% of the Moon is Illuminated
Jun 9
Waxing Gibbous
Jun 13
Full
Jun 19
Last Quarter
Jun 27
New
Jul 5
First Quarter

Hourly Weather History & Observations

Time (EDT) Temp. Dew Point Humidity Pressure Visibility Wind Dir Wind Speed Gust Speed Precip Events Conditions
12:51 AM 73.9 °F 53.1 °F 48% 29.89 in 10.0 mi South 6.9 mph - N/A   Clear
1:51 AM 73.0 °F 52.0 °F 48% 29.89 in 10.0 mi SSW 9.2 mph - N/A   Mostly Cloudy
2:51 AM 72.0 °F 54.0 °F 53% 29.90 in 10.0 mi SSW 8.1 mph - N/A   Overcast
3:51 AM 69.1 °F 57.9 °F 68% 29.91 in 5.0 mi SSW 8.1 mph - 0.01 in Rain Light Rain
4:51 AM 64.9 °F 59.0 °F 81% 29.93 in 5.0 mi Calm Calm - 0.20 in Rain Rain
5:51 AM 64.9 °F 59.0 °F 81% 29.94 in 4.0 mi Calm Calm - 0.19 in Rain Rain
6:22 AM 64.4 °F 60.8 °F 88% 29.95 in 2.5 mi Calm Calm - 0.11 in Rain Rain
6:51 AM 64.9 °F 61.0 °F 87% 29.93 in 2.5 mi East 5.8 mph - 0.25 in Rain Rain
7:07 AM 64.4 °F 60.8 °F 88% 29.93 in 4.0 mi East 3.5 mph - 0.04 in Rain Rain
7:47 AM 66.2 °F 60.8 °F 83% 29.93 in 4.0 mi Variable 3.5 mph - 0.06 in Rain Light Rain
7:51 AM 66.0 °F 61.0 °F 84% 29.94 in 4.0 mi East 3.5 mph - 0.06 in Rain Light Rain
8:08 AM 66.2 °F 60.8 °F 83% 29.94 in 1.5 mi SE 4.6 mph - 0.01 in Rain Rain
8:15 AM 66.2 °F 60.8 °F 83% 29.94 in 1.5 mi ESE 4.6 mph - 0.05 in Rain Rain
8:51 AM 64.9 °F 61.0 °F 87% 29.94 in 1.5 mi East 4.6 mph - 0.28 in Rain Rain
8:58 AM 64.4 °F 60.8 °F 88% 29.94 in 1.5 mi East 3.5 mph - 0.06 in Rain Rain
9:04 AM 64.4 °F 60.8 °F 88% 29.94 in 2.0 mi Calm Calm - 0.09 in Rain Rain
9:15 AM 64.4 °F 60.8 °F 88% 29.94 in 1.8 mi Calm Calm - 0.15 in Rain Rain
9:24 AM 64.4 °F 60.8 °F 88% 29.94 in 2.0 mi East 3.5 mph - 0.19 in Rain Rain
9:29 AM 64.4 °F 60.8 °F 88% 29.94 in 1.8 mi Calm Calm - 0.23 in Rain Rain
9:51 AM 64.9 °F 60.1 °F 84% 29.94 in 1.5 mi East 3.5 mph - 0.43 in Rain Rain
9:57 AM 64.4 °F 60.8 °F 88% 29.94 in 2.0 mi ENE 3.5 mph - 0.03 in Rain Rain
10:18 AM 66.2 °F 60.8 °F 83% 29.94 in 2.0 mi Calm Calm - 0.10 in Rain Rain
10:31 AM 66.2 °F 60.8 °F 83% 29.94 in 2.5 mi Calm Calm - 0.10 in Rain Rain
10:46 AM 66.2 °F 60.8 °F 83% 29.94 in 3.0 mi Calm Calm - 0.11 in Rain Light Rain
10:51 AM 66.0 °F 61.0 °F 84% 29.94 in 3.0 mi Calm Calm - 0.11 in Rain Light Rain
11:05 AM 66.2 °F 62.6 °F 88% 29.94 in 4.0 mi East 3.5 mph - 0.00 in Rain Light Rain
11:20 AM 66.2 °F 62.6 °F 88% 29.94 in 4.0 mi SE 4.6 mph - 0.00 in Rain Light Rain
11:51 AM 69.1 °F 62.1 °F 78% 29.94 in 4.0 mi SE 4.6 mph - 0.00 in   Haze
12:51 PM 68.0 °F 63.0 °F 84% 29.94 in 4.0 mi ESE 4.6 mph - N/A   Haze
1:51 PM 70.0 °F 63.0 °F 78% 29.94 in 4.0 mi Variable 3.5 mph - N/A   Haze
4:51 PM 69.1 °F 64.0 °F 84% 29.94 in 2.5 mi ENE 4.6 mph - N/A   Haze
5:51 PM 69.1 °F 63.0 °F 81% 29.94 in 2.5 mi East 5.8 mph - N/A   Haze
5:58 PM 68.0 °F 62.6 °F 83% 29.94 in 5.0 mi ENE 5.8 mph - N/A   Haze
6:37 PM 68.0 °F 62.6 °F 83% 29.94 in 6.0 mi East 6.9 mph - N/A   Haze
6:51 PM 68.0 °F 63.0 °F 84% 29.94 in 3.0 mi East 8.1 mph - N/A   Haze
7:31 PM 66.2 °F 62.6 °F 88% 29.95 in 3.0 mi NE 5.8 mph - N/A   Overcast
7:51 PM 66.9 °F 62.1 °F 84% 29.95 in 3.0 mi ENE 4.6 mph - N/A   Haze
8:51 PM 66.9 °F 62.1 °F 84% 29.95 in 4.0 mi ENE 5.8 mph - N/A   Haze
9:51 PM 66.0 °F 61.0 °F 84% 29.96 in 4.0 mi NE 3.5 mph - N/A   Haze
10:51 PM 66.0 °F 61.0 °F 84% 29.96 in 5.0 mi ENE 4.6 mph - N/A   Haze
11:03 PM 66.2 °F 60.8 °F 83% 29.96 in 6.0 mi NE 3.5 mph - N/A   Haze
11:51 PM 66.9 °F 62.1 °F 84% 29.95 in 5.0 mi NE 4.6 mph - N/A   Haze